This is the latest recevied weather packets stored in our database for station/object W8CWV-13. If no packets are shown the sender has not sent any weather packets the latest 10 day(s).
| Time | Temp. | Humidity | Pressure | Rain* | Wind** | Luminosity | Snow |
|---|---|---|---|---|---|---|---|
| 1777654445 | 22.78° C | 100% | 1021.2 hPa | - | - | - | - |
| 1777653868 | 22.22° C | 100% | 1021.2 hPa | - | - | - | - |
| 1777653292 | 19.44° C | 100% | 1021.7 hPa | - | - | - | - |
| 1777652721 | 21.11° C | 100% | 1021.7 hPa | - | - | - | - |
| 1777652151 | 21.67° C | 100% | 1021.6 hPa | - | - | - | - |
| 1777651582 | 21.67° C | 100% | 1021.6 hPa | - | - | - | - |
| 1777651005 | 21.11° C | 100% | 1021.8 hPa | - | - | - | - |
| 1777650430 | 22.78° C | 100% | 1021.9 hPa | - | - | - | - |
| 1777649852 | 21.67° C | 100% | 1022.3 hPa | - | - | - | - |
| 1777649280 | 20.56° C | 100% | 1022.6 hPa | - | - | - | - |
| 1777648701 | 20.56° C | 100% | 1023.1 hPa | - | - | - | - |
| 1777648126 | 20° C | 100% | 1023.5 hPa | - | - | - | - |
| 1777647558 | 20.56° C | 100% | 1023.7 hPa | - | - | - | - |
| 1777646979 | 20° C | 100% | 1023.6 hPa | - | - | - | - |
| 1777646404 | 18.89° C | 100% | 1023.2 hPa | - | - | - | - |
| 1777645835 | 17.22° C | 100% | 1023.9 hPa | - | - | - | - |
| 1777645261 | 17.78° C | 100% | 1023 hPa | - | - | - | - |
| 1777644688 | 17.22° C | 100% | 1022.4 hPa | - | - | - | - |
| 1777644114 | 16.67° C | 100% | 1024.7 hPa | - | - | - | - |
| 1777643539 | 16.67° C | 100% | 1025.7 hPa | - | - | - | - |
| 1777642965 | 16.11° C | 100% | 1026.1 hPa | - | - | - | - |
| 1777642392 | 15° C | 100% | 1026.6 hPa | - | - | - | - |
| 1777641819 | 16.67° C | 100% | 1027.2 hPa | - | - | - | - |
| 1777641245 | 15° C | 100% | 1027.9 hPa | - | - | - | - |
| 1777640673 | 13.89° C | 100% | 1027.9 hPa | - | - | - | - |
* Rain since midnight (hover to see other rain measurements)
** Current wind speed in m/s (hover to see current wind gust speed)